Location: Coffee Ditch
(40.9640°N, 122.7500°W)
Time: 08:11:17
(UTC+00:00)

Cosmos 2084 - Pass Details

Date: 08 September 2024
Orbit: 497 x 634 km, 62.8° (Epoch: 05 October)

Event Time Altitude Azimuth Distance (km) Brightness Sun altitude
Exits shadow 13:04:56 - 218° (SW) 2,326 6.0 -8.3°
Reaches altitude 10° 13:06:05 10° 219° (SW) 1,867 5.5 -8.1°
Maximum altitude 13:10:16 78° 305° (NW) 568 3.3 -7.3°
Drops below altitude 10° 13:14:19 10° 33° (NNE) 1,794 6.7 -6.6°
Sets 13:16:28 0° 35° (NE) 2,667 7.6 -6.2°
